Theta_e
315 315 312 314 314 323 323 322 320 321 322 324 325 324 321 318 317 316 315 316 316 316 316 320 318 315 314 312 312 311 315 317 317 314 315 312 314 311 315 326 324 325 326 327 332
316 315 310 314 313 315 323 322 320 320 321 324 325 324 321 317 315 315 317 317 317 318 315 319 320 319 316 315 312 315 317 318 314 314 314 312 313 313 322 325 327 327 328 330 333
315 315 310 313 314 312 323 321 319 319 320 324 325 324 320 316 313 313 318 317 317 318 317 318 320 321 320 318 315 312 317 313 314 313 312 313 312 313 321 325 323 327 329 331 331
312 315 313 311 314 313 315 321 318 318 321 323 324 323 319 314 321 317 317 317 316 317 319 319 317 321 323 321 318 317 313 312 313 311 313 313 310 314 318 318 314 323 329 330 332
309 315 314 312 314 313 313 321 318 317 321 322 324 322 313 314 314 319 316 316 315 316 319 316 319 319 324 321 318 318 315 312 311 310 312 310 312 314 315 312 318 326 330 330 332
310 311 314 314 315 315 313 322 318 317 321 322 323 321 317 319 317 317 314 316 315 315 316 317 317 315 316 316 323 317 314 315 313 310 311 312 311 312 313 322 324 328 330 330 330
310 311 311 315 315 315 313 321 319 318 320 323 323 319 319 320 319 316 315 315 316 316 317 317 317 321 317 317 317 310 316 313 312 311 312 310 312 312 311 324 326 326 328 329 329
311 310 311 312 315 315 315 320 320 318 320 323 321 320 321 319 317 317 316 316 316 317 318 318 320 316 320 320 321 317 312 315 314 310 311 309 317 313 314 326 327 326 325 328 328
310 310 311 312 313 315 315 320 319 318 320 322 320 318 316 315 315 318 317 319 314 316 317 320 320 318 319 324 326 321 321 314 313 309 310 310 314 311 315 323 325 325 325 326 326
309 309 310 313 312 314 319 319 318 319 321 321 318 318 310 317 316 318 317 318 317 316 316 316 316 320 321 327 333 326 325 314 312 310 309 310 310 309 307 323 323 324 324 325 325
309 309 310 314 314 315 320 319 320 320 320 319 317 313 310 315 317 320 319 319 319 319 319 315 322 328 325 326 325 325 324 325 311 310 310 309 310 312 306 314 321 323 324 324 324
307 309 310 310 315 317 319 319 318 318 321 315 315 308 312 318 321 320 319 319 321 321 315 316 322 321 322 324 318 325 325 322 315 309 309 310 310 310 305 305 310 319 321 323 322
306 308 308 309 315 319 318 317 317 316 315 315 311 311 314 316 320 321 319 320 319 321 320 320 319 316 321 323 326 320 327 324 323 309 307 308 312 310 306 304 303 305 314 317 322
306 308 307 308 315 318 317 316 317 315 317 315 313 312 309 313 317 316 317 318 320 322 321 321 317 316 319 321 323 325 317 311 310 312 325 307 315 311 308 307 304 304 302 308 312
305 307 306 306 317 318 317 316 314 315 323 312 312 310 308 315 315 315 310 314 321 318 318 320 316 316 317 318 315 320 316 314 310 310 307 306 310 312 305 306 307 304 303 303 303
305 306 305 307 316 317 316 314 315 320 320 312 310 311 312 311 311 309 312 310 314 316 315 314 310 314 315 312 316 311 315 315 313 311 318 311 312 310 314 308 307 305 305 305 303
304 307 306 307 315 316 313 314 319 323 309 310 311 312 312 312 314 316 312 315 320 322 320 316 314 312 308 309 312 315 318 320 321 317 318 303 309 314 308 304 307 308 307 305 304
304 306 305 306 311 314 313 317 322 312 312 309 311 312 312 312 313 314 314 317 309 313 320 321 321 314 309 309 312 315 317 319 321 318 312 302 310 310 306 307 302 302 303 302 302
303 306 306 306 308 314 315 318 316 313 307 311 311 313 310 308 314 314 313 316 311 310 318 321 321 312 310 311 310 311 316 308 309 297 306 306 304 305 303 303 303 304 303 303 302
304 306 307 307 313 314 315 314 306 306 307 310 314 310 312 309 310 313 312 309 310 308 308 312 313 311 311 310 310 310 312 316 315 313 308 306 304 310 306 306 305 304 305 305 302
304 302 304 306 314 315 314 312 306 306 309 309 307 306 309 309 309 311 312 308 306 308 304 307 308 307 307 311 313 313 314 315 314 309 311 308 308 301 306 305 305 305 304 304 304
299 304 305 310 317 315 317 307 307 308 304 304 304 304 310 309 308 309 311 308 307 308 306 305 306 309 311 307 309 311 312 314 318 316 307 308 309 303 301 301 302 302 301 303 304
298 299 302 302 311 315 313 309 307 306 305 305 305 305 307 309 310 307 308 307 307 309 310 306 307 306 311 309 306 312 310 312 311 312 315 317 318 302 302 303 303 304 303 304 304
299 304 299 298 308 315 313 310 308 306 306 303 303 306 306 308 305 307 307 305 306 308 310 308 307 309 312 311 308 311 311 311 314 317 314 314 315 307 307 307 304 304 304 305 304
297 301 297 307 308 312 312 310 308 307 307 304 305 307 306 307 306 306 306 306 306 309 308 307 306 306 307 306 308 310 311 309 313 315 316 315 314 312 310 309 309 303 305 305 304
299 300 298 302 307 312 311 311 308 309 308 307 305 306 304 306 307 306 306 306 307 306 306 304 303 306 305 307 306 308 310 311 310 311 312 312 310 306 304 302 302 304 304 305 305
295 294 298 302 309 312 311 309 308 309 308 305 304 305 304 304 304 305 306 306 306 309 309 306 304 302 299 303 305 304 307 309 311 311 310 311 310 307 305 304 306 306 302 304 305
Wind_Speed
35 30 26 36 36 30 39 39 38 36 32 28 28 25 22 16 13 11 10 11 10 9 13 14 1 4 7 4 2 4 4 1 3 5 3 4 4 1 2 5 1 2 5 2 23
36 33 29 34 38 32 41 41 40 39 36 33 31 27 23 17 12 11 10 17 16 8 12 11 3 1 3 2 3 4 4 4 1 2 3 4 3 8 4 4 2 2 4 17 24
34 37 33 33 36 53 39 44 42 38 37 34 32 29 24 17 3 8 26 13 13 19 10 11 9 3 2 0 2 3 5 3 3 4 3 2 2 3 8 3 7 8 11 18 23
22 40 39 34 37 39 37 47 45 40 37 36 34 31 26 21 8 4 16 21 16 17 12 11 3 6 4 4 1 5 4 6 3 5 3 2 5 4 6 6 1 7 20 22 19
17 30 39 37 39 36 35 49 47 43 37 38 37 33 26 5 6 3 11 24 20 19 20 7 6 5 8 6 3 4 5 4 1 6 4 2 5 5 7 2 4 15 19 18 20
19 20 34 41 36 36 44 48 49 46 40 41 40 36 17 13 6 2 20 23 21 21 15 10 8 4 5 5 6 4 1 2 4 5 4 4 2 2 4 4 7 13 16 18 22
19 22 21 27 34 35 39 51 50 46 43 43 42 37 12 10 12 10 22 22 18 14 7 5 10 4 3 6 2 3 3 6 1 1 4 5 3 7 3 5 8 8 9 12 19
21 22 23 28 31 34 42 51 50 48 45 44 42 23 5 16 11 16 23 14 7 11 9 12 10 8 2 1 3 5 5 3 2 1 2 3 7 4 6 8 9 10 9 11 15
20 23 23 28 34 36 39 54 49 45 46 43 32 11 6 19 14 20 28 18 17 16 10 11 6 4 2 6 4 3 4 4 5 5 1 4 6 2 5 8 8 7 8 11 10
17 19 22 27 35 40 49 53 46 42 42 38 15 4 2 9 16 21 24 25 7 18 6 5 4 3 2 7 8 5 7 5 5 4 3 3 8 6 4 6 8 7 8 9 10
15 19 22 29 38 32 53 44 14 14 33 8 12 5 13 19 24 11 29 18 6 4 5 4 4 12 11 13 1 11 6 10 2 1 2 5 7 12 5 5 7 8 9 9 10
16 17 28 19 36 44 49 17 30 26 29 6 13 4 8 26 10 11 31 10 9 11 7 4 6 5 10 7 5 11 11 7 3 0 3 4 9 12 6 7 8 10 8 12 7
16 14 24 25 37 41 38 34 40 41 8 6 6 8 13 14 12 15 21 8 15 10 11 6 3 12 10 10 10 3 15 7 4 0 1 4 12 10 5 5 5 7 7 8 15
13 10 21 26 34 43 27 45 44 31 6 5 6 3 5 11 6 8 16 6 5 13 11 2 4 12 12 7 11 8 4 4 5 1 4 6 6 9 6 11 8 10 10 13 14
10 12 19 27 27 21 42 43 46 5 13 13 7 10 6 8 18 9 3 3 13 8 7 4 8 14 12 7 9 2 9 5 2 4 3 4 4 7 5 10 11 12 13 14 15
10 8 14 22 16 35 44 45 19 7 6 8 8 11 8 2 3 6 5 5 4 7 5 2 2 7 8 7 15 11 8 10 6 4 6 7 7 6 11 8 5 8 14 16 15
10 7 12 15 10 39 44 24 10 9 10 10 11 18 16 8 6 15 10 8 7 9 7 3 2 2 2 8 4 13 11 3 3 2 8 5 7 16 6 8 9 11 16 16 12
8 8 15 20 19 55 28 13 11 7 7 6 19 22 10 15 4 9 13 11 5 5 7 8 6 8 6 6 8 12 4 5 5 4 4 4 10 6 10 11 6 6 7 4 8
8 10 9 24 28 50 18 12 6 12 9 16 21 20 8 6 9 9 13 17 10 9 8 7 6 2 2 4 7 6 7 7 4 1 1 5 8 8 8 7 6 9 6 10 9
4 3 5 28 37 28 12 6 4 7 15 28 15 7 16 15 9 14 18 7 7 5 1 7 5 5 4 3 4 5 8 4 2 4 5 5 5 7 3 12 10 9 12 14 6
1 2 7 26 36 14 8 4 6 7 28 14 7 8 11 15 7 13 18 1 6 8 4 6 4 2 7 9 12 3 6 3 1 3 4 2 6 7 13 10 8 9 4 4 6
2 2 8 28 9 9 12 10 7 19 2 6 6 7 20 19 6 8 15 8 14 17 9 6 5 4 9 2 10 4 6 9 6 5 2 2 9 6 7 7 4 7 7 5 4
1 1 11 14 7 15 11 8 5 13 6 6 6 4 11 15 6 4 7 5 16 20 18 8 3 4 3 2 3 13 7 14 2 4 7 4 13 2 3 4 5 7 7 6 4
1 2 1 2 2 21 18 13 9 4 5 6 8 15 10 13 5 9 7 3 11 12 9 8 5 7 10 6 8 9 16 14 15 4 8 15 31 6 7 9 3 6 6 5 6
2 0 0 2 6 16 17 15 23 8 3 8 4 16 12 7 3 5 5 5 4 9 4 4 6 4 2 4 5 9 17 16 22 28 12 32 23 22 18 19 19 8 5 4 7
2 1 1 3 6 18 12 17 30 7 7 7 14 19 7 10 9 9 9 5 8 5 9 2 2 4 2 1 7 6 17 25 27 22 21 17 21 6 6 8 8 13 4 7 12
2 1 2 4 10 17 11 23 20 15 7 7 18 10 6 9 12 13 9 10 14 19 18 10 7 4 5 1 5 4 20 17 19 21 25 17 32 5 8 12 16 17 8 11 11
Wind_Direction
230 228 230 237 249 234 221 218 215 217 214 206 205 197 195 195 189 183 211 216 209 180 178 198 215 63 83 110 179 125 69 167 188 168 233 156 156 139 111 115 138 128 151 207 161
226 222 229 231 235 255 219 215 214 212 211 201 202 196 192 186 184 220 206 207 207 187 176 175 121 86 73 61 43 105 129 199 214 266 254 196 182 158 134 127 218 135 59 143 152
233 218 225 228 230 236 220 214 211 210 210 197 195 194 186 175 54 240 217 208 200 206 192 182 142 87 71 152 72 198 155 95 314 285 253 200 201 186 128 216 211 189 159 154 157
246 221 220 224 220 229 246 210 207 208 204 195 192 187 180 160 191 189 207 199 189 187 189 164 149 127 161 165 274 130 149 126 255 347 331 231 129 191 207 201 271 174 160 162 164
248 223 217 225 218 227 240 205 205 206 198 194 193 183 158 188 238 316 188 182 177 178 186 161 153 148 176 159 150 147 191 143 8 320 256 109 228 201 226 293 104 136 160 174 175
244 232 224 228 225 226 232 198 203 203 193 191 190 176 160 198 195 153 164 170 172 177 179 171 172 175 141 163 176 158 144 330 10 330 299 223 227 209 210 138 126 152 172 177 182
242 241 232 219 225 223 221 199 201 199 191 183 186 172 171 177 175 164 169 171 173 176 133 148 160 108 124 112 260 116 83 360 333 297 275 263 171 230 137 147 151 165 176 176 189
243 241 243 228 226 226 220 192 196 194 189 182 180 173 170 169 168 165 169 151 146 194 162 135 143 93 54 165 41 92 74 75 306 160 240 63 272 231 167 160 184 174 181 181 196
244 249 256 240 223 218 230 186 190 190 183 175 165 194 156 158 155 168 168 147 112 131 132 134 74 91 43 120 86 43 124 206 291 177 196 159 282 302 180 184 198 187 192 194 193
257 254 261 235 223 218 195 181 182 177 169 163 166 144 169 186 142 159 170 145 112 109 76 65 72 108 132 175 186 156 180 224 193 170 177 224 255 280 238 211 203 189 200 207 202
268 258 249 235 218 206 167 162 167 173 174 174 163 119 128 141 143 153 153 138 116 97 142 145 176 198 181 189 286 151 173 228 169 356 154 231 253 258 195 220 220 204 200 211 212
281 266 244 288 209 198 172 174 176 170 166 154 138 90 148 140 130 140 154 149 158 156 118 119 227 159 141 167 126 190 184 206 261 58 177 307 267 258 205 227 210 204 205 215 200
281 277 249 269 193 179 171 174 170 148 118 130 122 155 164 137 135 154 169 135 171 167 181 167 163 147 153 172 193 154 203 186 193 186 187 25 277 262 249 251 218 218 198 203 213
276 279 263 303 206 172 175 177 165 163 122 160 136 188 162 123 94 139 156 134 170 180 171 245 131 152 151 185 190 199 192 131 115 304 230 171 277 249 228 238 221 217 197 213 215
299 257 253 286 160 167 168 171 163 155 178 148 148 156 254 166 136 174 161 73 152 140 143 176 165 163 172 165 159 241 161 155 68 180 314 214 225 266 164 240 240 226 214 218 217
297 267 267 296 146 165 172 160 140 151 157 142 131 171 147 112 84 116 141 64 104 111 65 101 333 175 171 160 165 131 72 39 357 59 267 182 211 218 228 220 219 238 229 218 216
300 285 235 266 181 179 159 155 167 189 147 146 160 167 148 141 105 157 157 156 157 144 162 112 144 325 164 99 162 126 136 123 145 196 236 271 184 239 239 225 215 215 222 227 214
297 279 230 238 225 154 154 154 184 125 155 140 154 151 138 138 93 151 153 179 241 113 151 164 183 188 170 159 166 164 153 143 175 207 263 351 228 260 212 229 225 249 265 260 222
293 234 225 242 255 154 159 194 141 154 144 137 142 145 129 140 134 148 186 196 182 186 138 156 199 16 149 120 149 164 211 147 124 81 16 214 292 297 256 264 238 238 245 247 233
248 192 230 216 170 157 160 130 122 139 130 146 140 150 164 163 137 166 175 190 177 178 132 188 116 184 204 131 21 148 142 192 83 199 250 279 276 244 336 242 225 225 225 246 246
25 76 242 225 162 167 174 117 125 164 143 149 135 127 169 156 138 167 173 221 143 169 80 147 98 20 130 211 168 133 157 94 46 205 187 282 258 221 225 220 235 252 271 281 279
79 229 322 184 169 174 173 140 141 155 83 105 91 93 162 165 124 151 187 178 164 155 148 195 117 142 196 301 177 195 181 172 185 196 248 134 261 248 229 237 251 264 306 294 263
116 319 331 329 169 168 133 123 137 155 153 141 123 146 146 159 131 146 163 199 159 166 172 176 143 96 87 350 4 202 188 203 156 72 214 190 261 236 255 296 293 286 312 304 271
132 307 306 351 111 166 146 152 143 185 96 81 107 115 122 161 31 172 147 115 164 175 170 144 172 165 181 181 140 189 185 191 200 203 210 221 243 248 293 305 266 245 255 275 260
53 48 91 221 183 168 160 157 154 159 136 135 76 162 146 137 106 111 115 87 88 151 178 188 179 133 91 139 143 171 179 178 199 220 200 241 247 241 260 287 292 198 202 228 253
110 169 244 267 193 157 155 180 167 138 147 169 147 159 132 146 165 157 128 130 169 176 174 209 200 111 163 298 187 179 193 193 207 216 233 254 272 174 219 247 276 290 257 238 214
140 163 102 293 187 161 178 169 172 135 14 113 137 128 108 158 150 160 167 156 158 170 187 174 141 117 230 171 116 310 210 197 209 207 220 228 243 138 220 227 245 255 239 248 251